Wind_Speed
29 26 30 38 39 38 36 35 37 36 39 37 35 33 31 36 30 30 25 22 23 29 29 28 26 26 22 19 15 12 11 8 7 6 9 9 8 8 7 6 9 13 13
38 36 29 24 30 35 38 38 39 37 37 38 37 35 34 36 35 32 30 29 29 30 30 31 31 28 25 21 16 13 11 9 7 7 9 5 8 7 7 10 10 10 14
38 34 35 35 30 31 33 33 35 43 42 41 40 39 36 34 36 34 35 33 33 34 33 32 31 28 24 20 17 15 14 11 9 8 6 4 3 9 8 8 9 12 14
36 33 32 31 33 32 30 36 33 28 32 44 45 45 43 41 40 41 39 38 38 37 33 31 30 27 24 23 18 17 13 10 8 9 9 7 9 5 5 8 11 14 17
22 23 26 30 29 24 29 35 33 36 30 37 42 45 45 42 42 42 38 39 40 40 35 31 29 28 25 22 18 14 12 11 11 9 9 10 10 11 10 15 12 16 21
2 5 7 13 19 25 25 24 24 39 40 36 38 46 47 44 44 43 40 44 42 39 32 30 29 28 25 22 18 15 14 9 10 10 10 9 10 11 11 16 23 26 28
6 6 6 8 10 14 18 18 20 23 37 40 40 44 46 45 44 44 43 44 42 37 33 30 29 28 24 21 16 14 10 10 9 9 10 10 11 12 14 17 20 26 31
12 9 7 9 10 13 17 20 25 19 26 36 44 41 44 44 43 44 45 41 37 34 30 27 28 25 22 18 16 13 11 10 8 8 9 10 12 13 14 17 19 26 27
20 17 12 9 9 10 14 16 18 15 22 30 38 38 41 40 38 40 38 36 35 30 30 28 28 25 20 16 14 12 8 8 8 9 11 12 13 14 16 17 19 20 19
34 34 34 29 21 15 17 19 17 14 22 26 32 36 36 35 35 33 33 33 31 32 32 29 25 20 18 16 13 10 9 9 8 10 12 13 14 15 17 18 19 20 23
30 29 34 33 34 34 30 21 21 19 25 30 32 31 32 33 32 31 30 30 33 32 30 26 23 21 19 15 12 10 8 8 9 11 13 15 16 18 18 20 22 24 25
29 29 28 30 33 32 32 35 31 29 31 33 30 29 31 32 31 28 29 35 34 32 28 25 23 19 15 12 7 7 7 8 10 12 14 16 18 19 21 22 24 25 26
24 26 27 29 30 29 23 23 39 37 35 33 32 32 32 31 28 29 35 35 34 30 27 24 20 17 11 7 7 7 7 9 11 13 15 17 20 22 23 24 26 26 27
19 19 23 24 32 33 30 23 36 38 34 35 36 33 30 30 31 34 35 33 31 28 26 21 16 12 8 8 6 6 8 10 12 15 17 19 20 22 23 24 24 25 27
13 15 12 9 12 6 18 27 31 30 37 37 32 29 30 30 34 36 37 33 30 26 20 17 14 9 6 6 4 7 10 12 13 15 17 19 20 20 20 19 21 24 25
8 8 6 8 12 19 27 31 34 35 33 32 27 29 33 35 39 38 34 31 27 23 19 13 9 7 6 3 5 8 11 13 15 17 18 19 20 21 20 20 20 20 25
2 4 7 8 12 14 23 28 29 29 27 26 28 32 37 40 38 35 31 28 24 20 15 11 8 5 2 4 8 10 12 14 17 19 20 20 20 22 24 24 21 22 24
3 4 6 11 13 15 18 22 22 22 23 27 32 36 37 35 32 29 27 24 18 12 10 8 5 2 4 7 9 11 14 16 18 19 19 21 23 22 19 21 24 27 30
4 5 5 9 12 14 16 18 20 22 26 30 32 32 32 30 31 26 20 16 15 12 8 4 1 4 6 9 11 14 16 17 17 18 19 22 23 21 20 24 27 32 35
6 7 9 11 12 15 17 21 25 28 27 26 27 29 31 29 24 22 20 17 12 7 4 2 2 5 7 10 14 19 20 19 20 22 24 24 24 22 21 25 30 34 35
11 12 13 15 18 18 18 21 19 20 26 28 29 27 23 22 22 19 14 10 7 5 2 2 5 7 9 12 15 16 17 21 24 27 27 25 23 22 25 24 26 27 25
13 12 15 19 16 18 17 20 27 28 27 27 28 26 23 19 14 11 10 8 5 2 2 4 6 8 10 13 15 17 17 20 25 26 25 24 24 25 24 21 20 21 23
14 15 16 17 17 20 21 26 27 27 26 22 21 19 17 13 11 10 8 5 2 2 4 6 8 10 13 15 17 18 20 22 23 23 23 23 26 25 22 21 21 20 21
19 20 21 20 22 22 22 23 24 24 24 25 23 18 13 13 11 8 5 2 3 4 6 8 11 13 14 16 17 19 22 22 23 24 27 27 24 22 21 20 18 18 21
24 25 26 25 23 22 23 25 25 25 25 20 16 13 12 10 7 5 2 3 5 6 9 11 13 14 15 17 18 20 22 22 22 23 24 25 22 21 21 21 20 21 24
26 24 22 23 23 23 26 28 28 23 18 16 14 12 10 7 4 2 3 5 7 9 12 13 14 15 17 17 19 21 20 19 21 23 23 21 21 22 22 22 24 24 25
Wind_Direction
246 247 245 242 240 239 239 233 227 223 219 216 218 219 208 207 206 211 216 217 226 216 216 220 222 223 224 228 231 240 235 244 272 304 308 299 292 293 302 292 301 304 305
253 250 245 244 242 238 237 235 230 225 219 220 222 228 218 210 209 213 217 224 227 226 224 224 224 225 225 225 227 237 236 252 286 307 314 292 293 276 275 282 294 294 308
250 252 252 251 248 244 237 236 234 231 229 222 224 225 224 217 209 210 216 219 227 229 224 226 225 224 224 225 226 227 236 249 276 302 289 281 269 305 278 270 276 274 281
248 251 250 250 248 248 244 244 243 235 230 231 229 224 218 217 209 211 214 217 221 230 230 233 227 222 223 231 225 237 236 246 273 286 285 280 278 288 282 275 257 268 286
249 249 252 249 245 246 247 242 246 246 240 231 229 227 219 219 217 213 220 220 219 223 222 230 225 220 225 228 225 225 236 257 275 285 288 288 283 275 272 285 271 278 286
109 225 248 252 251 249 253 248 243 236 239 236 228 227 223 221 219 218 221 219 220 219 217 224 220 218 221 217 221 227 235 245 268 281 281 283 282 284 283 286 297 300 305
357 337 285 262 258 251 248 252 250 247 236 235 235 227 226 226 228 226 225 219 217 213 214 222 218 215 215 216 224 225 232 253 267 274 278 284 289 291 291 290 296 299 306
339 315 290 275 256 251 251 249 250 258 241 230 235 231 224 227 228 227 227 221 218 217 218 221 210 209 208 213 218 219 234 253 265 274 283 289 291 293 294 296 301 305 305
356 345 341 323 299 261 242 240 248 253 237 228 226 223 225 227 232 227 223 219 214 210 212 205 204 202 205 208 213 225 239 256 266 279 287 291 295 297 299 298 298 300 302
330 319 309 295 279 267 262 255 237 240 231 225 224 221 225 221 223 225 221 214 209 204 198 198 197 198 196 202 216 225 246 257 278 288 294 298 299 298 297 296 297 298 297
323 315 308 298 288 270 256 246 230 230 229 225 219 218 219 217 220 223 213 205 206 199 194 189 183 192 195 200 215 226 245 269 289 296 298 299 299 299 300 302 302 300 297
311 306 298 295 289 281 269 254 235 221 225 224 221 215 217 216 215 207 200 201 196 191 185 181 180 186 193 202 218 242 264 282 295 295 298 300 299 302 305 303 302 303 302
314 321 320 312 299 285 257 253 226 217 215 212 212 207 212 213 201 197 195 190 185 180 174 178 179 186 189 198 232 258 284 294 299 299 302 302 303 305 305 305 306 307 305
326 325 316 313 300 284 254 237 207 206 204 205 199 205 202 196 194 189 183 179 177 171 170 171 175 181 193 220 233 276 291 299 303 304 304 301 301 303 305 306 307 307 307
330 335 334 3 40 94 159 184 189 192 193 185 184 199 191 185 181 173 173 172 169 169 165 168 170 186 207 215 267 295 300 304 305 304 303 302 302 301 302 300 301 301 303
320 350 8 59 88 110 144 164 171 171 172 173 181 181 178 175 172 170 167 160 160 158 159 160 180 189 196 251 293 300 304 309 312 313 309 307 307 307 308 303 300 298 301
358 52 66 79 102 130 138 144 150 159 165 167 171 173 170 167 166 157 158 153 154 153 157 171 176 186 238 303 305 306 312 318 319 316 313 310 308 306 304 305 308 302 298
133 116 97 104 115 128 132 139 146 152 157 161 163 169 162 158 151 146 150 146 153 148 153 158 175 240 305 305 314 316 319 322 320 317 315 313 312 312 312 316 307 303 300
153 140 139 141 138 140 143 148 146 150 155 155 162 159 153 145 142 150 155 148 147 148 152 148 244 307 318 318 318 322 323 324 324 323 320 321 322 323 319 313 310 309 308
144 161 160 154 158 151 162 156 140 144 146 148 148 143 142 153 149 147 145 138 136 134 163 198 326 324 327 329 328 327 329 327 324 325 327 324 322 321 319 312 309 307 308
138 155 158 153 149 154 161 143 141 147 148 143 150 146 142 143 146 136 132 127 131 158 140 351 338 334 331 329 328 325 325 323 322 322 321 321 324 323 312 311 303 306 317
141 148 151 150 155 152 163 147 141 145 147 145 141 143 145 147 137 126 119 146 146 125 9 348 337 331 328 323 321 318 316 314 316 320 323 328 327 316 316 313 313 312 304
133 135 137 140 140 143 138 141 140 146 145 144 138 136 146 139 123 138 141 136 105 8 348 341 336 331 329 327 324 322 320 321 324 329 327 318 321 320 318 319 317 317 319
140 141 139 137 138 144 149 151 149 144 144 146 149 155 141 144 143 140 122 85 12 355 347 340 334 332 330 328 326 326 327 330 334 333 322 318 319 319 322 324 328 331 331
145 150 154 153 154 154 152 148 145 151 158 157 144 145 149 143 138 128 96 20 355 347 341 339 337 333 333 335 334 332 333 337 324 316 320 323 327 331 333 336 337 336 335
165 160 157 156 155 160 158 157 159 163 155 153 155 149 146 139 129 77 18 354 347 342 339 340 338 338 339 336 332 333 333 326 326 324 326 330 333 336 337 338 337 338 337
Height
1451 1453 1455 1459 1462 1465 1468 1471 1473 1476 1476 1481 1482 1487 1491 1495 1498 1501 1504 1506 1507 1510 1513 1515 1517 1519 1520 1522 1524 1525 1526 1525 1525 1522 1523 1522 1520 1520 1520 1521 1520 1519 1518
1444 1446 1449 1452 1455 1458 1462 1465 1468 1470 1472 1475 1479 1481 1485 1489 1493 1496 1499 1501 1502 1505 1508 1511 1513 1515 1517 1518 1521 1522 1523 1522 1521 1518 1519 1520 1520 1519 1519 1518 1518 1517 1515
1436 1439 1443 1446 1449 1452 1455 1458 1461 1465 1465 1468 1470 1475 1479 1483 1486 1490 1492 1495 1497 1499 1503 1507 1509 1512 1514 1516 1518 1518 1518 1519 1517 1517 1519 1518 1517 1516 1516 1515 1515 1514 1512
1430 1433 1436 1439 1442 1445 1449 1452 1455 1458 1461 1461 1462 1464 1469 1475 1479 1481 1484 1489 1491 1495 1497 1502 1506 1509 1511 1513 1514 1515 1515 1516 1515 1515 1517 1516 1516 1515 1514 1513 1512 1511 1509
1426 1428 1431 1432 1437 1440 1442 1446 1448 1451 1454 1455 1457 1459 1462 1468 1473 1476 1480 1482 1485 1489 1492 1497 1501 1504 1507 1509 1511 1511 1511 1513 1512 1512 1513 1513 1513 1512 1511 1508 1509 1508 1507
1425 1426 1428 1430 1432 1435 1437 1439 1440 1443 1446 1448 1450 1451 1456 1461 1467 1471 1473 1475 1479 1483 1488 1493 1496 1500 1503 1505 1507 1508 1509 1510 1509 1509 1510 1510 1510 1509 1507 1505 1502 1500 1498
1424 1425 1427 1428 1430 1431 1433 1434 1435 1437 1439 1441 1442 1445 1450 1455 1461 1465 1467 1469 1472 1476 1481 1487 1492 1495 1499 1502 1504 1506 1506 1506 1506 1507 1507 1506 1506 1504 1503 1501 1499 1495 1491
1423 1424 1424 1425 1426 1427 1428 1428 1429 1431 1432 1433 1435 1440 1445 1452 1456 1460 1462 1465 1469 1473 1478 1483 1488 1491 1496 1500 1502 1503 1504 1503 1504 1504 1504 1503 1502 1500 1499 1497 1495 1490 1486
1426 1426 1426 1426 1425 1424 1424 1424 1425 1425 1425 1426 1430 1433 1438 1445 1451 1456 1460 1463 1466 1470 1475 1479 1484 1488 1493 1497 1500 1500 1501 1502 1501 1500 1501 1500 1498 1496 1495 1493 1492 1489 1483
1422 1421 1421 1421 1422 1420 1421 1419 1421 1422 1420 1421 1424 1427 1434 1440 1446 1451 1455 1460 1466 1468 1471 1476 1481 1486 1490 1494 1496 1497 1497 1499 1497 1497 1497 1496 1495 1493 1491 1489 1487 1484 1481
1417 1415 1412 1411 1410 1411 1412 1413 1414 1416 1417 1417 1419 1425 1430 1436 1440 1445 1452 1458 1463 1466 1470 1474 1479 1484 1488 1490 1493 1495 1494 1494 1493 1493 1493 1492 1490 1489 1486 1484 1481 1478 1476
1414 1411 1407 1404 1400 1398 1399 1401 1407 1407 1409 1415 1418 1423 1428 1432 1435 1440 1448 1454 1459 1464 1469 1472 1478 1483 1487 1489 1491 1492 1491 1491 1490 1490 1489 1488 1486 1484 1481 1478 1475 1473 1470
1407 1402 1398 1395 1390 1387 1389 1391 1394 1396 1402 1410 1415 1419 1423 1430 1435 1438 1444 1451 1457 1463 1467 1472 1477 1482 1485 1486 1488 1489 1488 1488 1486 1486 1484 1483 1481 1478 1475 1472 1469 1466 1463
1405 1401 1397 1390 1380 1373 1375 1383 1385 1391 1398 1404 1410 1415 1421 1426 1432 1436 1442 1450 1457 1462 1467 1472 1477 1481 1482 1484 1485 1486 1486 1485 1483 1482 1480 1478 1475 1472 1470 1466 1464 1460 1456
1404 1402 1397 1389 1379 1370 1371 1378 1385 1391 1396 1402 1408 1414 1420 1424 1431 1436 1443 1449 1457 1462 1467 1472 1476 1479 1480 1482 1482 1482 1483 1481 1480 1478 1476 1473 1470 1467 1465 1462 1458 1455 1451
1405 1403 1398 1391 1386 1383 1378 1380 1385 1391 1398 1405 1409 1415 1420 1424 1432 1437 1444 1450 1458 1463 1467 1472 1475 1478 1480 1479 1479 1480 1479 1477 1475 1473 1471 1467 1464 1461 1458 1456 1453 1451 1447
1406 1403 1400 1396 1393 1392 1389 1388 1393 1399 1403 1408 1412 1418 1420 1425 1435 1440 1447 1452 1457 1464 1466 1470 1474 1477 1477 1476 1476 1476 1475 1473 1470 1468 1464 1461 1458 1455 1451 1448 1446 1444 1440
1406 1405 1404 1402 1401 1401 1401 1400 1403 1405 1408 1411 1417 1420 1422 1434 1440 1443 1455 1456 1460 1463 1468 1471 1473 1474 1473 1473 1473 1472 1470 1468 1466 1463 1459 1455 1452 1448 1445 1442 1439 1436 1433
1406 1405 1406 1406 1406 1406 1407 1408 1409 1411 1414 1417 1421 1426 1433 1439 1443 1453 1457 1455 1460 1465 1469 1470 1471 1470 1470 1470 1469 1468 1466 1464 1461 1458 1455 1451 1446 1443 1441 1437 1432 1428 1423
1406 1406 1406 1407 1408 1410 1410 1410 1414 1416 1421 1427 1433 1435 1434 1447 1450 1455 1457 1460 1464 1467 1468 1469 1468 1468 1468 1467 1465 1463 1460 1459 1456 1453 1449 1445 1441 1438 1436 1432 1426 1420 1415
1406 1407 1408 1408 1409 1413 1415 1417 1423 1427 1428 1433 1440 1444 1448 1450 1456 1455 1457 1461 1464 1466 1466 1466 1466 1466 1465 1464 1462 1460 1457 1454 1450 1446 1443 1439 1436 1433 1430 1426 1420 1415 1411
1409 1410 1411 1411 1414 1415 1418 1419 1423 1432 1434 1441 1443 1447 1452 1455 1456 1456 1459 1463 1465 1465 1465 1465 1465 1464 1462 1461 1459 1457 1454 1451 1446 1441 1438 1434 1432 1427 1422 1418 1414 1411 1406
1412 1412 1414 1416 1419 1421 1424 1427 1430 1437 1438 1442 1446 1452 1455 1455 1458 1460 1462 1463 1464 1464 1464 1463 1462 1461 1460 1458 1456 1453 1449 1446 1441 1437 1434 1431 1425 1421 1416 1413 1409 1405 1400
1413 1416 1418 1422 1424 1427 1431 1434 1438 1443 1447 1451 1454 1455 1457 1459 1460 1461 1463 1464 1464 1463 1462 1461 1460 1459 1457 1454 1451 1448 1444 1440 1437 1433 1429 1425 1421 1417 1413 1409 1405 1401 1396
1415 1418 1421 1424 1428 1432 1436 1440 1443 1447 1450 1452 1454 1457 1459 1459 1460 1462 1462 1462 1461 1461 1460 1459 1457 1455 1453 1450 1447 1443 1439 1437 1434 1429 1424 1419 1415 1411 1408 1404 1401 1397 1392
1416 1419 1424 1428 1431 1435 1439 1442 1446 1449 1451 1454 1457 1458 1459 1460 1461 1461 1461 1460 1460 1459 1458 1456 1454 1451 1449 1446 1443 1440 1437 1434 1428 1424 1419 1415 1411 1408 1404 1400 1396 1392 1388